CZ-6A DEB

Satellite information

Favourite Embed

Satellite Type and Status

DEBRISIN ORBIT

Key statistics

Satellite CZ-6A DEB at a glance.

Uptime

907

Days in orbit

Revolutions

≈ 14.7

Per day

Orbit

SSO

Sun Synchronous Orbit

Inclination

98.7

Latest

Satellite identification and parameters

Extended collection of information and parameters for CZ-6A DEB.

Object identification

Identified? True

Debris? True

Object name: CZ-6A DEB

International designator: 2022-151MR

Object number (NORAD): 54591

Object ID (CCSDS): 54591

Country: PEOPLES REPUBLIC OF CHINA (PRC)

Current information (Y/N): Y

RCS size: SMALL

Orbital parameters

Period: 97.976 minutes

Inclination: 98.7378 deg

SMA: 7040.033 km

Apoapsis: 744.836 km

Periapsis: 578.961 km

RAAN: 184.7764 deg

Eccentricy: 0.0117808

Argument of periapsis: 100.5379 deg

Mean anomaly: 260.9121 deg

Mean motion: 14.69740575 rev/day

Mean motion (dot): 0.00025992 rev/day2

B* drag term: 0.0039139 1/REarth

Two-line elements (TLE)

Creation date: May 6, 2025, 3:54 a.m.

Reference frame: TEME

Reference center: EARTH

Epoch: May 5, 2025, 3:31 p.m. UTC

TLE line 0: 0 CZ-6A DEB

TLE line 1: 1 54591U 22151MR 25125.64697221 .00025992 00000-0 39139-2 0 9991

TLE line 2: 2 54591 98.7378 184.7764 0117808 100.5379 260.9121 14.69740575 56364

Live tracking on map

Real-time ground track for satellite CZ-6A DEB.

In-orbit conjunctions

A list of the most updated potential collisions computed for object CZ-6A DEB.

Target Orbit TCA Probability of collision Miss distance Type
SL-3 R/B LEO 2024-09-10 09:43:00 0.001081335 156.0 (m) ROCKET BODY
COSMOS 2251 DEB LEO 2024-07-26 17:44:50 0.0001118794 36.0 (m) DEBRIS
FENGYUN 1C DEB SSO 2024-07-11 19:31:37 0.0001204128 135.0 (m) DEBRIS

Associated space launch

Chinese satellite reported for atmospheric/ocean/environmental/spatial parameter research purposes, details TBD.

CZ-6A DEB was lifted into orbit during the mission ‘Long March 6A | Yunhai 3’, on board a Long March 6A space rocket.

The launch took place on Nov. 11, 2022, 10:52 p.m. from Launch Complex 9A.

For more information about the launch, click the button.

Launch to space Long March 6A | Yunhai 3
Long March 6A | Yunhai 3

Agency: N/A

Status: Launch Successful

Launch date: Nov. 11, 2022, 10:52 p.m. UTC

Rocket: Long March 6A

Launch pad: Launch Complex 9A

Location: Taiyuan Satellite Launch Center, People's Republic of China

...

Latest news about this satellite

There are no fresh news available about this satellite. Check back as we update our databases every day.


Newsletter sign-up

Weekly statistics, charts and insights to help you stay on top of the space industry.